This is the latest recevied weather packets stored in our database for station/object N1HRK. If no packets are shown the sender has not sent any weather packets the latest 10 day(s).
| Time | Temp. | Humidity | Pressure | Rain* | Wind** | Luminosity | Snow |
|---|---|---|---|---|---|---|---|
| 1778025124 | 15° C | 73% | 1009.6 hPa | 0 mm | - | - | - |
| 1778024524 | 15° C | 73% | 1009.5 hPa | 0 mm | - | - | - |
| 1778023923 | 15° C | 72% | 1009.7 hPa | 0 mm | - | - | - |
| 1778023323 | 15° C | 72% | 1009.7 hPa | 0 mm | - | - | - |
| 1778022723 | 15.56° C | 71% | 1009.8 hPa | 0 mm | - | - | - |
| 1778022124 | 15° C | 71% | 1009.9 hPa | 0 mm | - | - | - |
| 1778021523 | 15.56° C | 71% | 1009.9 hPa | 0 mm | - | - | - |
| 1778020924 | 15.56° C | 70% | 1009.8 hPa | 0 mm | - | - | - |
| 1778020325 | 15.56° C | 70% | 1009.7 hPa | 0 mm | - | - | - |
| 1778019723 | 15.56° C | 70% | 1009.5 hPa | 0 mm | - | - | - |
| 1778019123 | 15.56° C | 70% | 1009.5 hPa | 0 mm | - | - | - |
| 1778018523 | 15.56° C | 70% | 1009.6 hPa | 0 mm | - | - | - |
| 1778017923 | 15.56° C | 70% | 1009.6 hPa | 0 mm | - | - | - |
| 1778017324 | 16.11° C | 70% | 1009.5 hPa | 0 mm | - | - | - |
| 1778016724 | 16.11° C | 68% | 1009.6 hPa | 0 mm | - | - | - |
| 1778016124 | 16.11° C | 68% | 1009.6 hPa | 0 mm | - | - | - |
| 1778015524 | 16.11° C | 69% | 1009.4 hPa | 0 mm | - | - | - |
| 1778014924 | 16.11° C | 69% | 1009.5 hPa | 0 mm | - | - | - |
| 1778014324 | 16.67° C | 68% | 1009.1 hPa | 0 mm | - | - | - |
| 1778013723 | 17.22° C | 66% | 1009 hPa | 0 mm | - | - | - |
| 1778013155 | 17.22° C | 64% | 1009.2 hPa | 0 mm | - | - | - |
| 1778013124 | 17.22° C | 64% | 1009.2 hPa | 0 mm | - | - | - |
| 1778012525 | 16.67° C | 65% | 1009.3 hPa | 0 mm | - | - | - |
| 1778011924 | 16.67° C | 66% | 1009.4 hPa | 0 mm | - | - | - |
| 1778011322 | 17.22° C | 65% | 1009.4 hPa | 0 mm | - | - | - |
* Rain latest hour (hover to see other rain measurements)
** Current wind speed in m/s (hover to see current wind gust speed)